ImageName,UTCTime,Latitude,Longitude,H_Ell_m,Northing,Easting,H_Ortho_m
2021014FA_f01r02_20210204T150634Z_M1042672.JPG,15:06:34,42.051715,-70.07899,5.547,4656081.264,410712.452,33.132
2021014FA_f01r02_20210204T150644Z_M1042673.JPG,15:06:44,42.051717,-70.079026,7.094,4656081.524,410709.476,34.679
2021014FA_f01r02_20210204T150654Z_M1042674.JPG,15:06:54,42.051714,-70.079032,7.172,4656081.197,410708.975,34.757
2021014FA_f01r02_20210204T150704Z_M1042675.JPG,15:07:04,42.051751,-70.07908,7.635,4656085.355,410705.055,35.22
2021014FA_f01r02_20210204T150714Z_M1042676.JPG,15:07:14,42.051848,-70.079041,8.151,4656096.084,410708.418,35.735
2021014FA_f01r02_20210204T150724Z_M1042677.JPG,15:07:24,42.051918,-70.079057,6.204,4656103.873,410707.192,33.788
2021014FA_f01r02_20210204T150734Z_M1042678.JPG,15:07:34,42.05199,-70.079014,5.078,4656111.823,410710.851,32.663
2021014FA_f01r02_20210204T150744Z_M1042679.JPG,15:07:44,42.052042,-70.078978,3.347,4656117.559,410713.903,30.931
2021014FA_f01r02_20210204T150804Z_M1042681.JPG,15:08:04,42.052238,-70.078862,3.938,4656139.2,410723.777,31.521
2021014FA_f01r02_20210204T150814Z_M1042682.JPG,15:08:14,42.052318,-70.078829,1.997,4656148.048,410726.619,29.581
2021014FA_f01r02_20210204T150824Z_M1042683.JPG,15:08:24,42.052415,-70.078821,3.758,4656158.81,410727.417,31.342
2021014FA_f01r02_20210204T150834Z_M1042684.JPG,15:08:34,42.052482,-70.078833,4.371,4656166.261,410726.518,31.954
2021014FA_f01r02_20210204T150844Z_M1042685.JPG,15:08:44,42.052503,-70.078871,1.949,4656168.633,410723.403,29.532
2021014FA_f01r02_20210204T150854Z_M1042686.JPG,15:08:54,42.052579,-70.078811,3.899,4656177.009,410728.475,31.482
2021014FA_f01r02_20210204T150904Z_M1042687.JPG,15:09:04,42.052605,-70.078822,2.453,4656179.907,410727.601,30.036
2021014FA_f01r02_20210204T150914Z_M1042688.JPG,15:09:14,42.052636,-70.078715,-1.706,4656183.237,410736.498,25.877
2021014FA_f01r02_20210204T150924Z_M1042689.JPG,15:09:24,42.052706,-70.078688,0.99,4656190.981,410738.831,28.573
2021014FA_f01r02_20210204T150934Z_M1042690.JPG,15:09:34,42.052749,-70.078604,1.187,4656195.668,410745.842,28.769
2021014FA_f01r02_20210204T150954Z_M1042692.JPG,15:09:54,42.052734,-70.07833,0.054,4656193.717,410768.495,27.637
2021014FA_f01r02_20210204T151004Z_M1042693.JPG,15:10:04,42.052746,-70.078177,1.803,4656194.889,410781.172,29.386
2021014FA_f01r02_20210204T151014Z_M1042694.JPG,15:10:14,42.052699,-70.078078,2.576,4656189.568,410789.299,30.158
2021014FA_f01r02_20210204T151024Z_M1042695.JPG,15:10:24,42.052657,-70.077911,2.993,4656184.73,410803.06,30.575
2021014FA_f01r02_20210204T151034Z_M1042696.JPG,15:10:34,42.052595,-70.077778,2.034,4656177.707,410813.979,29.617
2021014FA_f01r02_20210204T151044Z_M1042697.JPG,15:10:44,42.052559,-70.077615,1.514,4656173.54,410827.417,29.097
2021014FA_f01r02_20210204T151054Z_M1042698.JPG,15:10:54,42.05248,-70.077538,-0.491,4656164.689,410833.678,27.092
2021014FA_f01r02_20210204T151104Z_M1042699.JPG,15:15:04,42.052446,-70.077371,-0.706,4656160.739,410847.45,26.876
2021014FA_f01r02_20210204T151114Z_M1042700.JPG,15:15:14,42.052421,-70.077228,0.732,4656157.815,410859.248,28.315
2021014FA_f01r02_20210204T151124Z_M1042701.JPG,15:15:24,42.052399,-70.077084,3.299,4656155.222,410871.134,30.881
2021014FA_f01r02_20210204T151134Z_M1042702.JPG,15:15:34,42.052346,-70.076935,1.521,4656149.182,410883.39,29.104
2021014FA_f01r02_20210204T151144Z_M1042703.JPG,15:15:44,42.05228,-70.076828,1.158,4656141.742,410892.152,28.741
2021014FA_f01r02_20210204T151154Z_M1042704.JPG,15:15:54,42.052209,-70.076736,0.695,4656133.763,410899.666,28.278
2021014FA_f01r02_20210204T151204Z_M1042705.JPG,15:12:04,42.052157,-70.076662,2.721,4656127.912,410905.716,30.304
2021014FA_f01r02_20210204T151214Z_M1042706.JPG,15:12:14,42.052104,-70.076576,4.281,4656121.938,410912.759,31.864
2021014FA_f01r02_20210204T151224Z_M1042707.JPG,15:12:24,42.052055,-70.076423,4.791,4656116.338,410925.352,32.374
2021014FA_f01r02_20210204T151234Z_M1042708.JPG,15:12:34,42.052009,-70.076282,4.295,4656111.084,410936.955,31.878
2021014FA_f01r02_20210204T151244Z_M1042709.JPG,15:12:44,42.051976,-70.076153,4.318,4656107.285,410947.584,31.902
2021014FA_f01r02_20210204T151254Z_M1042710.JPG,15:12:54,42.05192,-70.076048,5.419,4656100.958,410956.195,33.003
2021014FA_f01r02_20210204T151304Z_M1042711.JPG,15:13:04,42.051865,-70.075944,5.631,4656094.743,410964.724,33.215
2021014FA_f01r02_20210204T151314Z_M1042712.JPG,15:13:14,42.051825,-70.075857,8.601,4656090.212,410971.868,36.185
2021014FA_f01r02_20210204T151324Z_M1042713.JPG,15:13:24,42.051793,-70.075687,9.043,4656086.482,410985.891,36.627
2021014FA_f01r02_20210204T151334Z_M1042714.JPG,15:13:34,42.051734,-70.075588,9.261,4656079.828,410994.001,36.845
2021014FA_f01r02_20210204T151344Z_M1042715.JPG,15:13:44,42.051669,-70.075538,9.387,4656072.559,410998.048,36.971
2021014FA_f01r02_20210204T151354Z_M1042716.JPG,15:13:54,42.051587,-70.075455,7.874,4656063.368,411004.802,35.458
2021014FA_f01r02_20210204T151404Z_M1042717.JPG,15:15:04,42.051485,-70.075369,4.766,4656051.953,411011.776,32.35
2021014FA_f01r02_20210204T151414Z_M1042718.JPG,15:15:14,42.05141,-70.075311,5.754,4656043.565,411016.471,33.339
2021014FA_f01r02_20210204T151424Z_M1042719.JPG,15:15:24,42.051358,-70.075174,7.419,4656037.649,411027.736,35.003
2021014FA_f01r02_20210204T151434Z_M1042720.JPG,15:15:34,42.05128,-70.075122,7.335,4656028.934,411031.93,34.92
2021014FA_f01r02_20210204T151444Z_M1042721.JPG,15:15:44,42.051198,-70.075074,5.585,4656019.78,411035.787,33.17
2021014FA_f01r02_20210204T151454Z_M1042722.JPG,15:15:54,42.051147,-70.07499,5.937,4656014.03,411042.668,33.522
2021014FA_f01r02_20210204T151504Z_M1042723.JPG,15:15:04,42.051109,-70.074904,8.565,4656009.721,411049.731,36.15
2021014FA_f01r02_20210204T151514Z_M1042724.JPG,15:15:14,42.051034,-70.074761,5.823,4656001.245,411061.46,33.408
2021014FA_f01r02_20210204T151524Z_M1042725.JPG,15:15:24,42.051003,-70.074802,2.664,4655997.846,411058.024,30.249
2021014FA_f01r02_20210204T151534Z_M1042726.JPG,15:15:34,42.051002,-70.074966,-0.753,4655997.905,411044.451,26.832
2021014FA_f01r02_20210204T151544Z_M1042727.JPG,15:15:44,42.051061,-70.075065,0.854,4656004.559,411036.341,28.439
2021014FA_f01r02_20210204T151554Z_M1042728.JPG,15:15:54,42.0511,-70.075184,0.825,4656009.013,411026.548,28.41
2021014FA_f01r02_20210204T151604Z_M1042729.JPG,15:16:04,42.05117,-70.075263,3.441,4656016.867,411020.108,31.026
2021014FA_f01r02_20210204T151614Z_M1042730.JPG,15:16:14,42.051218,-70.075331,2.162,4656022.268,411014.548,29.747
2021014FA_f01r02_20210204T151624Z_M1042731.JPG,15:16:24,42.051308,-70.075369,4.191,4656032.3,411011.529,31.776
2021014FA_f01r02_20210204T151634Z_M1042732.JPG,15:16:34,42.051365,-70.075449,4.183,4656038.712,411004.988,31.768
2021014FA_f01r02_20210204T151644Z_M1042733.JPG,15:16:44,42.051401,-70.075565,4.561,4656042.83,410995.439,32.146
2021014FA_f01r02_20210204T151654Z_M1042734.JPG,15:16:54,42.051431,-70.075744,5.89,4656046.347,410980.669,33.475
2021014FA_f01r02_20210204T151724Z_M1042737.JPG,15:17:24,42.051563,-70.075943,1.879,4656061.211,410964.385,29.464
2021014FA_f01r02_20210204T151744Z_M1042739.JPG,15:17:44,42.05164,-70.076151,1.45,4656069.977,410947.28,29.035
2021014FA_f01r02_20210204T151754Z_M1042740.JPG,15:17:54,42.051691,-70.076229,1.259,4656075.721,410940.897,28.843
2021014FA_f01r02_20210204T151804Z_M1042741.JPG,15:18:04,42.051753,-70.076289,1.935,4656082.667,410936.018,29.519
2021014FA_f01r02_20210204T151814Z_M1042742.JPG,15:18:14,42.051774,-70.076435,0.936,4656085.151,410923.966,28.52
2021014FA_f01r02_20210204T151824Z_M1042743.JPG,15:18:24,42.051821,-70.076502,-0.161,4656090.439,410918.487,27.423
2021014FA_f01r02_20210204T151834Z_M1042744.JPG,15:18:34,42.051872,-70.076612,1.751,4656096.216,410909.456,29.335
2021014FA_f01r02_20210204T151844Z_M1042745.JPG,15:18:44,42.05193,-70.076676,3.086,4656102.723,410904.241,30.67
2021014FA_f01r02_20210204T151854Z_M1042746.JPG,15:18:54,42.051986,-70.076719,2.125,4656108.985,410900.761,29.708
2021014FA_f01r02_20210204T151904Z_M1042747.JPG,15:19:04,42.052044,-70.076811,3.497,4656115.521,410893.229,31.081
2021014FA_f01r02_20210204T151914Z_M1042748.JPG,15:19:14,42.052073,-70.07695,2.855,4656118.886,410881.767,30.438
2021014FA_f01r02_20210204T151924Z_M1042749.JPG,15:19:24,42.052136,-70.077004,3.115,4656125.937,410877.386,30.698
2021014FA_f01r02_20210204T151944Z_M1042751.JPG,15:19:44,42.052227,-70.077176,2.612,4656136.22,410863.28,30.195
2021014FA_f01r02_20210204T151954Z_M1042752.JPG,15:19:54,42.052252,-70.077286,1.112,4656139.111,410854.212,28.696
2021014FA_f01r02_20210204T152004Z_M1042753.JPG,15:20:04,42.05229,-70.077402,1.504,4656143.451,410844.666,29.087
2021014FA_f01r02_20210204T152014Z_M1042754.JPG,15:20:14,42.052348,-70.07749,3.286,4656149.982,410837.465,30.869
2021014FA_f01r02_20210204T152024Z_M1042755.JPG,15:20:24,42.052376,-70.07761,1.84,4656153.216,410827.574,29.423
2021014FA_f01r02_20210204T152034Z_M1042756.JPG,15:20:34,42.052414,-70.077682,1.646,4656157.511,410821.67,29.229
2021014FA_f01r02_20210204T152044Z_M1042757.JPG,15:20:44,42.052438,-70.077789,0.582,4656160.287,410812.849,28.165
2021014FA_f01r02_20210204T152054Z_M1042758.JPG,15:20:54,42.052468,-70.077886,0.971,4656163.719,410804.864,28.554
2021014FA_f01r02_20210204T152104Z_M1042759.JPG,15:21:04,42.052513,-70.07788,-0.838,4656168.709,410805.423,26.745
2021014FA_f01r02_20210204T152114Z_M1042760.JPG,15:21:14,42.052533,-70.077991,0.245,4656171.046,410796.266,27.828
2021014FA_f01r02_20210204T152124Z_M1042761.JPG,15:21:24,42.052566,-70.078064,0.496,4656174.786,410790.271,28.079
2021014FA_f01r02_20210204T152134Z_M1042762.JPG,15:21:34,42.052593,-70.078168,2.251,4656177.892,410781.703,29.834
2021014FA_f01r02_20210204T152144Z_M1042763.JPG,15:21:44,42.052565,-70.078242,0.214,4656174.86,410775.54,27.797
2021014FA_f01r02_20210204T152154Z_M1042764.JPG,15:21:54,42.052513,-70.078277,0.618,4656169.123,410772.571,28.201
2021014FA_f01r02_20210204T152204Z_M1042765.JPG,15:22:04,42.052442,-70.078321,2.531,4656161.286,410768.831,30.115
2021014FA_f01r02_20210204T152214Z_M1042766.JPG,15:22:14,42.052394,-70.078303,3.479,4656155.938,410770.253,31.062
2021014FA_f01r02_20210204T152224Z_M1042767.JPG,15:22:24,42.0523,-70.078347,2.205,4656145.546,410766.48,29.788
2021014FA_f01r02_20210204T152234Z_M1042768.JPG,15:22:34,42.052234,-70.078327,3.258,4656138.198,410768.043,30.842
2021014FA_f01r02_20210204T152244Z_M1042769.JPG,15:22:44,42.052194,-70.078247,4.311,4656133.673,410774.607,31.895
2021014FA_f01r02_20210204T152254Z_M1042770.JPG,15:22:54,42.052141,-70.078183,4.023,4656127.721,410779.829,31.607
2021014FA_f01r02_20210204T152304Z_M1042771.JPG,15:23:04,42.052114,-70.078067,4.258,4656124.602,410789.39,31.842
2021014FA_f01r02_20210204T152314Z_M1042772.JPG,15:23:14,42.052105,-70.077927,5.792,4656123.457,410800.963,33.376
2021014FA_f01r02_20210204T152324Z_M1042773.JPG,15:23:24,42.052057,-70.077837,4.899,4656118.034,410808.344,32.483
2021014FA_f01r02_20210204T152334Z_M1042774.JPG,15:23:34,42.052051,-70.077715,7.955,4656117.24,410818.431,35.539
2021014FA_f01r02_20210204T152344Z_M1042775.JPG,15:23:44,42.052018,-70.077577,7.179,4656113.432,410829.804,34.763
2021014FA_f01r02_20210204T152354Z_M1042776.JPG,15:23:54,42.051983,-70.077435,7.457,4656109.398,410841.506,35.041
2021014FA_f01r02_20210204T152404Z_M1042777.JPG,15:24:04,42.051941,-70.077348,8.511,4656104.644,410848.647,36.095
2021014FA_f01r02_20210204T152414Z_M1042778.JPG,15:24:14,42.051925,-70.077246,11.892,4656102.761,410857.065,39.476
2021014FA_f01r02_20210204T152424Z_M1042779.JPG,15:24:24,42.051845,-70.077137,7.93,4656093.765,410865.973,35.514
2021014FA_f01r02_20210204T152434Z_M1042780.JPG,15:24:34,42.051782,-70.077015,5.457,4656086.643,410875.981,33.041
2021014FA_f01r02_20210204T152444Z_M1042781.JPG,15:24:44,42.051732,-70.076898,6.342,4656080.97,410885.593,33.926
2021014FA_f01r02_20210204T152454Z_M1042782.JPG,15:24:54,42.051669,-70.076803,5.149,4656073.876,410893.366,32.733
2021014FA_f01r02_20210204T152504Z_M1042783.JPG,15:25:04,42.051622,-70.076717,6.35,4656068.568,410900.417,33.935
2021014FA_f01r02_20210204T152514Z_M1042784.JPG,15:25:14,42.051587,-70.076589,7.332,4656064.548,410910.961,34.916
2021014FA_f01r02_20210204T152524Z_M1042785.JPG,15:25:24,42.051547,-70.076501,10.518,4656060.015,410918.187,38.102
2021014FA_f01r02_20210204T152534Z_M1042786.JPG,15:25:34,42.051464,-70.076368,7.377,4656050.661,410929.077,34.961
2021014FA_f01r02_20210204T152544Z_M1042787.JPG,15:25:44,42.051387,-70.076225,5.046,4656041.963,410940.803,32.631
2021014FA_f01r02_20210204T152554Z_M1042788.JPG,15:25:54,42.051303,-70.076106,2.475,4656032.512,410950.533,30.06
2021014FA_f01r02_20210204T152604Z_M1042789.JPG,15:26:04,42.051228,-70.076006,1.471,4656024.081,410958.704,29.056
2021014FA_f01r02_20210204T152614Z_M1042790.JPG,15:26:14,42.051173,-70.075859,1.188,4656017.821,410970.792,28.773
2021014FA_f01r02_20210204T152624Z_M1042791.JPG,15:26:24,42.051122,-70.075715,1.524,4656012.008,410982.637,29.109
2021014FA_f01r02_20210204T152634Z_M1042792.JPG,15:26:34,42.051084,-70.075591,3.109,4656007.66,410992.845,30.694
2021014FA_f01r02_20210204T152644Z_M1042793.JPG,15:26:44,42.051016,-70.075524,4.256,4656000.04,410998.295,31.841
2021014FA_f01r02_20210204T152654Z_M1042794.JPG,15:26:54,42.050926,-70.075524,3.592,4655990.047,410998.169,31.178
2021014FA_f01r02_20210204T152704Z_M1042795.JPG,15:27:04,42.050854,-70.075535,1.545,4655982.064,410997.158,29.131
2021014FA_f01r02_20210204T152714Z_M1042796.JPG,15:27:14,42.0508,-70.075564,2.838,4655976.099,410994.683,30.424
2021014FA_f01r02_20210204T152724Z_M1042797.JPG,15:27:24,42.050812,-70.075666,4.875,4655977.537,410986.259,32.461
2021014FA_f01r02_20210204T152734Z_M1042798.JPG,15:27:34,42.05087,-70.075763,6.418,4655984.078,410978.313,34.004
2021014FA_f01r02_20210204T152744Z_M1042799.JPG,15:27:44,42.050905,-70.075914,7.606,4655988.121,410965.866,35.192
2021014FA_f01r02_20210204T152754Z_M1042800.JPG,15:27:54,42.050921,-70.076057,5.935,4655990.047,410954.055,33.521
2021014FA_f01r02_20210204T152814Z_M1042802.JPG,15:28:14,42.050982,-70.076233,2.78,4655997.003,410939.575,30.366
2021014FA_f01r02_20210204T152824Z_M1042803.JPG,15:28:24,42.051039,-70.076317,4.777,4656003.419,410932.704,32.363
2021014FA_f01r02_20210204T152834Z_M1042804.JPG,15:28:34,42.051089,-70.076474,8.191,4656009.134,410919.781,35.777
2021014FA_f01r02_20210204T152844Z_M1042805.JPG,15:28:44,42.051128,-70.076618,9.896,4656013.615,410907.919,37.482
2021014FA_f01r02_20210204T152854Z_M1042806.JPG,15:28:54,42.051164,-70.076698,6.138,4656017.695,410901.35,33.723
2021014FA_f01r02_20210204T152904Z_M1042807.JPG,15:29:04,42.051277,-70.076701,10.157,4656030.245,410901.259,37.742
2021014FA_f01r02_20210204T152914Z_M1042808.JPG,15:29:14,42.051292,-70.076823,8.271,4656032.037,410891.184,35.856
2021014FA_f01r02_20210204T152924Z_M1042809.JPG,15:29:24,42.051322,-70.076946,7.62,4656035.497,410881.048,35.205
2021014FA_f01r02_20210204T152934Z_M1042810.JPG,15:29:34,42.051362,-70.077064,8.134,4656040.061,410871.339,35.719
2021014FA_f01r02_20210204T152944Z_M1042811.JPG,15:29:44,42.051387,-70.077166,6.026,4656042.943,410862.933,33.611
2021014FA_f01r02_20210204T152954Z_M1042812.JPG,15:29:54,42.051409,-70.077258,3.599,4656045.481,410855.351,31.184
2021014FA_f01r02_20210204T153004Z_M1042813.JPG,15:30:04,42.051452,-70.077406,4.636,4656050.41,410843.163,32.221
2021014FA_f01r02_20210204T153014Z_M1042814.JPG,15:30:14,42.051533,-70.077491,7.308,4656059.492,410836.243,34.893
2021014FA_f01r02_20210204T153024Z_M1042815.JPG,15:30:24,42.051597,-70.077528,6.673,4656066.637,410833.27,34.258
2021014FA_f01r02_20210204T153034Z_M1042816.JPG,15:30:34,42.051646,-70.077625,6.426,4656072.179,410825.312,34.011
2021014FA_f01r02_20210204T153044Z_M1042817.JPG,15:30:44,42.051686,-70.07776,7.191,4656076.761,410814.196,34.776
2021014FA_f01r02_20210204T153054Z_M1042818.JPG,15:30:54,42.051713,-70.07787,5.099,4656079.873,410805.131,32.683
2021014FA_f01r02_20210204T153104Z_M1042819.JPG,15:31:04,42.051789,-70.077941,8.525,4656088.386,410799.362,36.109
2021014FA_f01r02_20210204T153114Z_M1042820.JPG,15:31:14,42.0518,-70.078089,7.707,4656089.761,410787.13,35.292
2021014FA_f01r02_20210204T153134Z_M1042822.JPG,15:31:34,42.051856,-70.078334,8.147,4656096.235,410766.935,35.731
2021014FA_f01r02_20210204T153154Z_M1042824.JPG,15:31:54,42.051891,-70.078599,7.068,4656100.397,410745.054,34.652
2021014FA_f01r02_20210204T153204Z_M1042825.JPG,15:32:04,42.051912,-70.078705,6.795,4656102.84,410736.312,34.38
2021014FA_f01r02_20210204T153214Z_M1042826.JPG,15:32:14,42.051879,-70.078808,8.723,4656099.283,410727.742,36.307
2021014FA_f01r02_20210204T153224Z_M1042827.JPG,15:32:24,42.051809,-70.078898,12.004,4656091.605,410720.197,39.589
2021014FA_f01r02_20210204T153234Z_M1042828.JPG,15:32:34,42.051727,-70.078888,9.306,4656082.49,410720.909,36.891
2021014FA_f01r02_20210204T153244Z_M1042829.JPG,15:32:44,42.051668,-70.078912,11.106,4656075.964,410718.841,38.691
2021014FA_f01r02_20210204T153254Z_M1042830.JPG,15:32:54,42.051623,-70.078821,11.527,4656070.873,410726.308,39.112
2021014FA_f01r02_20210204T153304Z_M1042831.JPG,15:33:04,42.051568,-70.078695,9.973,4656064.634,410736.658,37.558
2021014FA_f01r02_20210204T153314Z_M1042832.JPG,15:33:14,42.051517,-70.07857,8.883,4656058.841,410746.931,36.468
2021014FA_f01r02_20210204T153324Z_M1042833.JPG,15:33:24,42.051499,-70.078439,11.532,4656056.706,410757.746,39.117
2021014FA_f01r02_20210204T153334Z_M1042834.JPG,15:33:34,42.051473,-70.078304,13.164,4656053.678,410768.881,40.75
2021014FA_f01r02_20210204T153344Z_M1042835.JPG,15:33:44,42.051434,-70.078141,12.611,4656049.178,410782.315,40.197
2021014FA_f01r02_20210204T153354Z_M1042836.JPG,15:33:54,42.051369,-70.078074,12.415,4656041.891,410787.769,40.001
2021014FA_f01r02_20210204T153404Z_M1042837.JPG,15:34:04,42.051309,-70.077983,12.557,4656035.134,410795.215,40.142
2021014FA_f01r02_20210204T153414Z_M1042838.JPG,15:34:14,42.05125,-70.077877,10.554,4656028.473,410803.904,38.14
2021014FA_f01r02_20210204T153424Z_M1042839.JPG,15:34:24,42.051209,-70.077707,9.998,4656023.743,410817.915,37.583
2021014FA_f01r02_20210204T153434Z_M1042840.JPG,15:34:34,42.051163,-70.077547,9.648,4656018.469,410831.091,37.234
2021014FA_f01r02_20210204T153444Z_M1042841.JPG,15:34:44,42.051089,-70.077479,8.836,4656010.182,410836.615,36.422
2021014FA_f01r02_20210204T153454Z_M1042842.JPG,15:34:54,42.05106,-70.077354,9.377,4656006.831,410846.918,36.962
2021014FA_f01r02_20210204T153504Z_M1042843.JPG,15:35:04,42.051033,-70.077283,11.019,4656003.76,410852.756,38.605
2021014FA_f01r02_20210204T153514Z_M1042844.JPG,15:35:14,42.051004,-70.077156,13.573,4656000.407,410863.225,41.159
2021014FA_f01r02_20210204T153524Z_M1042845.JPG,15:35:24,42.050964,-70.077011,13.209,4655995.815,410875.168,40.795
2021014FA_f01r02_20210204T153534Z_M1042846.JPG,15:35:34,42.050898,-70.076941,12.564,4655988.414,410880.869,40.15
2021014FA_f01r02_20210204T153544Z_M1042847.JPG,15:35:44,42.050833,-70.076825,9.989,4655981.076,410890.377,37.576
2021014FA_f01r02_20210204T153554Z_M1042848.JPG,15:35:54,42.050779,-70.07673,9.773,4655974.981,410898.163,37.36
2021014FA_f01r02_20210204T153604Z_M1042849.JPG,15:36:04,42.050745,-70.076576,10.225,4655971.046,410910.86,37.811
2021014FA_f01r02_20210204T153614Z_M1042850.JPG,15:36:14,42.050691,-70.076459,10.479,4655964.928,410920.466,38.065
2021014FA_f01r02_20210204T153624Z_M1042851.JPG,15:36:24,42.050646,-70.076354,11.607,4655959.822,410929.093,39.194
2021014FA_f01r02_20210204T153634Z_M1042852.JPG,15:36:34,42.050603,-70.076217,11.16,4655954.905,410940.37,38.746
2021014FA_f01r02_20210204T153644Z_M1042853.JPG,15:36:44,42.050571,-70.076062,11.8,4655951.191,410953.152,39.387
2021014FA_f01r02_20210204T153654Z_M1042854.JPG,15:36:54,42.050513,-70.075965,11.664,4655944.65,410961.098,39.25
2021014FA_f01r02_20210204T153704Z_M1042855.JPG,15:37:04,42.050458,-70.075861,10.935,4655938.435,410969.628,38.522
2021014FA_f01r02_20210204T153714Z_M1042856.JPG,15:37:14,42.050421,-70.075932,12.16,4655934.401,410963.7,39.747
2021014FA_f01r02_20210204T153724Z_M1042857.JPG,15:37:24,42.050398,-70.076062,14.232,4655931.982,410952.91,41.819
2021014FA_f01r02_20210204T153734Z_M1042858.JPG,15:37:34,42.050378,-70.07617,9.777,4655929.874,410943.945,37.364
2021014FA_f01r02_20210204T153744Z_M1042859.JPG,15:37:44,42.050416,-70.076242,7.375,4655934.168,410938.04,34.962
2021014FA_f01r02_20210204T153754Z_M1042860.JPG,15:37:54,42.050469,-70.076337,8.388,4655940.152,410930.252,35.975
2021014FA_f01r02_20210204T153804Z_M1042861.JPG,15:38:04,42.050493,-70.076483,9.375,4655942.969,410918.204,36.962
2021014FA_f01r02_20210204T153814Z_M1042862.JPG,15:38:14,42.050506,-70.076588,6.862,4655944.522,410909.533,34.449
2021014FA_f01r02_20210204T153824Z_M1042863.JPG,15:38:24,42.050581,-70.076589,7.438,4655952.85,410909.555,35.025
2021014FA_f01r02_20210204T153834Z_M1042864.JPG,15:38:34,42.050663,-70.076651,11.256,4655962.019,410904.539,38.843
2021014FA_f01r02_20210204T153844Z_M1042865.JPG,15:38:44,42.05068,-70.076757,9.827,4655964.017,410895.791,37.413
2021014FA_f01r02_20210204T153854Z_M1042866.JPG,15:38:54,42.0507,-70.076937,10.724,4655966.425,410880.923,38.31
2021014FA_f01r02_20210204T153904Z_M1042867.JPG,15:39:04,42.050735,-70.077047,10.332,4655970.426,410871.869,37.919
2021014FA_f01r02_20210204T153914Z_M1042868.JPG,15:39:14,42.050782,-70.077082,9.706,4655975.681,410869.038,37.292
2021014FA_f01r02_20210204T153924Z_M1042869.JPG,15:39:24,42.050802,-70.077182,8.622,4655978.006,410860.791,36.208
2021014FA_f01r02_20210204T153934Z_M1042870.JPG,15:39:34,42.050838,-70.077273,8.592,4655982.098,410853.311,36.178
2021014FA_f01r02_20210204T153944Z_M1042871.JPG,15:39:44,42.050906,-70.077346,10.349,4655989.724,410847.365,37.935
2021014FA_f01r02_20210204T153954Z_M1042872.JPG,15:39:54,42.050972,-70.077394,10.865,4655997.102,410843.485,38.452
2021014FA_f01r02_20210204T154004Z_M1042873.JPG,15:40:04,42.051008,-70.077481,10.45,4656001.19,410836.336,38.036
2021014FA_f01r02_20210204T154014Z_M1042874.JPG,15:40:14,42.051047,-70.077568,10.848,4656005.611,410829.191,38.434
2021014FA_f01r02_20210204T154024Z_M1042875.JPG,15:40:24,42.05107,-70.077649,9.622,4656008.249,410822.52,37.208
2021014FA_f01r02_20210204T154034Z_M1042876.JPG,15:40:34,42.051105,-70.07776,10.355,4656012.251,410813.384,37.941
2021014FA_f01r02_20210204T154044Z_M1042877.JPG,15:40:44,42.051161,-70.077836,12.668,4656018.548,410807.173,40.254
2021014FA_f01r02_20210204T154054Z_M1042878.JPG,15:40:54,42.051175,-70.077958,11.432,4656020.23,410797.096,39.018
2021014FA_f01r02_20210204T154104Z_M1042879.JPG,15:41:04,42.051171,-70.078104,9.611,4656019.938,410785.009,37.197
2021014FA_f01r02_20210204T154114Z_M1042880.JPG,15:41:14,42.051212,-70.078183,9.352,4656024.573,410778.529,36.938
2021014FA_f01r02_20210204T154124Z_M1042881.JPG,15:41:24,42.051232,-70.078299,8.553,4656026.914,410768.958,36.139
2021014FA_f01r02_20210204T154134Z_M1042882.JPG,15:41:34,42.05129,-70.078302,7.305,4656033.357,410768.79,34.891
2021014FA_f01r02_20210204T154144Z_M1042883.JPG,15:41:44,42.051322,-70.078455,9.306,4656037.07,410756.174,36.891
2021014FA_f01r02_20210204T154154Z_M1042884.JPG,15:41:54,42.051368,-70.07856,9.631,4656042.287,410747.549,37.217
2021014FA_f01r02_20210204T154204Z_M1042885.JPG,15:42:04,42.051413,-70.078679,10.918,4656047.408,410737.765,38.504
2021014FA_f01r02_20210204T154214Z_M1042886.JPG,15:42:14,42.051466,-70.078759,11.812,4656053.376,410731.219,39.397
2021014FA_f01r02_20210204T154224Z_M1042887.JPG,15:42:24,42.051521,-70.078837,11.889,4656059.564,410724.841,39.475
2021014FA_f01r02_20210204T154234Z_M1042888.JPG,15:42:34,42.0516,-70.078843,12.524,4656068.342,410724.455,40.11
2021014FA_f01r02_20210204T154244Z_M1042889.JPG,15:42:44,42.051649,-70.07898,13.557,4656073.925,410713.187,41.142
2021014FA_f01r02_20210204T154254Z_M1042890.JPG,15:42:54,42.051717,-70.079008,14.567,4656081.505,410710.965,42.152